<?xml version="1.0" encoding="UTF-8"?>
<gpx
version="1.1"
creator="Kashmir3D 9.350 - http://www.kashmir3d.com"
xmlns:xsi="http://www.w3.org/2001/XMLSchema-instance"
xmlns="http://www.topografix.com/GPX/1/1"
xmlns:kashmir3d="http://www.kashmir3d.com/namespace/kashmir3d"
xsi:schemaLocation="http://www.topografix.com/GPX/1/1 http://www.topografix.com/GPX/1/1/gpx.xsd
	http://www.kashmir3d.com/namespace/kashmir3d http://www.kashmir3d.com/namespace/kashmir3d.xsd">
<trk>
 <name>KONGOUZAN.KML(金剛山)</name>
 <number>1</number>
 <extensions>
 <kashmir3d:line_color>0000ff</kashmir3d:line_color>
 <kashmir3d:line_size>3</kashmir3d:line_size>
 <kashmir3d:line_style>1</kashmir3d:line_style>
 <kashmir3d:icon>901001</kashmir3d:icon>
 </extensions>
<trkseg>
<trkpt lat="34.417637" lon="135.649078">
 <ele>508.2</ele>
 <time>2020-03-24T13:08:07Z</time>
</trkpt>
<trkpt lat="34.417826" lon="135.649250">
 <ele>507.5</ele>
 <time>2020-03-24T13:08:07Z</time>
</trkpt>
<trkpt lat="34.417954" lon="135.649336">
 <ele>507.5</ele>
 <time>2020-03-24T13:08:07Z</time>
</trkpt>
<trkpt lat="34.418117" lon="135.649357">
 <ele>506.4</ele>
 <time>2020-03-24T13:08:07Z</time>
</trkpt>
<trkpt lat="34.418229" lon="135.649346">
 <ele>505.9</ele>
 <time>2020-03-24T13:08:07Z</time>
</trkpt>
<trkpt lat="34.418323" lon="135.649411">
 <ele>506.4</ele>
 <time>2020-03-24T13:08:07Z</time>
</trkpt>
<trkpt lat="34.418435" lon="135.649572">
 <ele>508</ele>
 <time>2020-03-24T13:08:08Z</time>
</trkpt>
<trkpt lat="34.418564" lon="135.649700">
 <ele>509</ele>
 <time>2020-03-24T13:08:08Z</time>
</trkpt>
<trkpt lat="34.418572" lon="135.649883">
 <ele>512.3</ele>
 <time>2020-03-24T13:08:08Z</time>
</trkpt>
<trkpt lat="34.418590" lon="135.650054">
 <ele>514.9</ele>
 <time>2020-03-24T13:08:08Z</time>
</trkpt>
<trkpt lat="34.418607" lon="135.650194">
 <ele>516.4</ele>
 <time>2020-03-24T13:08:08Z</time>
</trkpt>
<trkpt lat="34.418615" lon="135.650376">
 <ele>519.5</ele>
 <time>2020-03-24T13:08:08Z</time>
</trkpt>
<trkpt lat="34.418624" lon="135.650516">
 <ele>523.9</ele>
 <time>2020-03-24T13:08:08Z</time>
</trkpt>
<trkpt lat="34.418650" lon="135.650698">
 <ele>525.5</ele>
 <time>2020-03-24T13:08:08Z</time>
</trkpt>
<trkpt lat="34.418667" lon="135.650805">
 <ele>525.5</ele>
 <time>2020-03-24T13:08:09Z</time>
</trkpt>
<trkpt lat="34.418607" lon="135.650988">
 <ele>536.1</ele>
 <time>2020-03-24T13:08:09Z</time>
</trkpt>
<trkpt lat="34.418581" lon="135.651159">
 <ele>532.8</ele>
 <time>2020-03-24T13:08:09Z</time>
</trkpt>
<trkpt lat="34.418512" lon="135.651299">
 <ele>532.5</ele>
 <time>2020-03-24T13:08:09Z</time>
</trkpt>
<trkpt lat="34.418392" lon="135.651556">
 <ele>541</ele>
 <time>2020-03-24T13:08:09Z</time>
</trkpt>
<trkpt lat="34.418195" lon="135.651825">
 <ele>551.3</ele>
 <time>2020-03-24T13:08:09Z</time>
</trkpt>
<trkpt lat="34.418014" lon="135.652061">
 <ele>555.3</ele>
 <time>2020-03-24T13:08:09Z</time>
</trkpt>
<trkpt lat="34.417877" lon="135.652211">
 <ele>558.6</ele>
 <time>2020-03-24T13:08:09Z</time>
</trkpt>
<trkpt lat="34.417757" lon="135.652340">
 <ele>561.1</ele>
 <time>2020-03-24T13:08:10Z</time>
</trkpt>
<trkpt lat="34.417594" lon="135.652490">
 <ele>564.5</ele>
 <time>2020-03-24T13:08:10Z</time>
</trkpt>
<trkpt lat="34.417457" lon="135.652597">
 <ele>569.5</ele>
 <time>2020-03-24T13:08:10Z</time>
</trkpt>
<trkpt lat="34.417362" lon="135.652672">
 <ele>570.3</ele>
 <time>2020-03-24T13:08:10Z</time>
</trkpt>
<trkpt lat="34.417251" lon="135.652833">
 <ele>573.8</ele>
 <time>2020-03-24T13:08:10Z</time>
</trkpt>
<trkpt lat="34.417208" lon="135.652940">
 <ele>575.8</ele>
 <time>2020-03-24T13:08:10Z</time>
</trkpt>
<trkpt lat="34.417079" lon="135.653144">
 <ele>580.2</ele>
 <time>2020-03-24T13:08:10Z</time>
</trkpt>
<trkpt lat="34.416967" lon="135.653337">
 <ele>582.1</ele>
 <time>2020-03-24T13:08:11Z</time>
</trkpt>
<trkpt lat="34.416796" lon="135.653606">
 <ele>585.8</ele>
 <time>2020-03-24T13:08:11Z</time>
</trkpt>
<trkpt lat="34.416650" lon="135.653756">
 <ele>587.7</ele>
 <time>2020-03-24T13:08:11Z</time>
</trkpt>
<trkpt lat="34.416555" lon="135.653863">
 <ele>589.4</ele>
 <time>2020-03-24T13:08:11Z</time>
</trkpt>
<trkpt lat="34.416375" lon="135.654056">
 <ele>591.1</ele>
 <time>2020-03-24T13:08:11Z</time>
</trkpt>
<trkpt lat="34.416152" lon="135.654271">
 <ele>598.7</ele>
 <time>2020-03-24T13:08:11Z</time>
</trkpt>
<trkpt lat="34.415980" lon="135.654346">
 <ele>605.7</ele>
 <time>2020-03-24T13:08:11Z</time>
</trkpt>
<trkpt lat="34.415860" lon="135.654400">
 <ele>612.1</ele>
 <time>2020-03-24T13:08:11Z</time>
</trkpt>
<trkpt lat="34.415791" lon="135.654410">
 <ele>617</ele>
 <time>2020-03-24T13:08:12Z</time>
</trkpt>
<trkpt lat="34.415723" lon="135.654485">
 <ele>623.2</ele>
 <time>2020-03-24T13:08:12Z</time>
</trkpt>
<trkpt lat="34.415603" lon="135.654625">
 <ele>635</ele>
 <time>2020-03-24T13:08:12Z</time>
</trkpt>
<trkpt lat="34.415543" lon="135.654700">
 <ele>640.9</ele>
 <time>2020-03-24T13:08:12Z</time>
</trkpt>
<trkpt lat="34.415568" lon="135.654797">
 <ele>640.1</ele>
 <time>2020-03-24T13:08:12Z</time>
</trkpt>
<trkpt lat="34.415620" lon="135.654861">
 <ele>641</ele>
 <time>2020-03-24T13:08:12Z</time>
</trkpt>
<trkpt lat="34.415706" lon="135.654893">
 <ele>642.9</ele>
 <time>2020-03-24T13:08:12Z</time>
</trkpt>
<trkpt lat="34.415774" lon="135.654936">
 <ele>644.2</ele>
 <time>2020-03-24T13:08:13Z</time>
</trkpt>
<trkpt lat="34.415843" lon="135.655086">
 <ele>647.9</ele>
 <time>2020-03-24T13:08:13Z</time>
</trkpt>
<trkpt lat="34.415877" lon="135.655204">
 <ele>651.6</ele>
 <time>2020-03-24T13:08:13Z</time>
</trkpt>
<trkpt lat="34.415886" lon="135.655354">
 <ele>654.1</ele>
 <time>2020-03-24T13:08:13Z</time>
</trkpt>
<trkpt lat="34.415886" lon="135.655515">
 <ele>657.1</ele>
 <time>2020-03-24T13:08:13Z</time>
</trkpt>
<trkpt lat="34.415886" lon="135.655633">
 <ele>660.4</ele>
 <time>2020-03-24T13:08:13Z</time>
</trkpt>
<trkpt lat="34.415843" lon="135.655741">
 <ele>660.5</ele>
 <time>2020-03-24T13:08:13Z</time>
</trkpt>
<trkpt lat="34.415774" lon="135.655880">
 <ele>660.9</ele>
 <time>2020-03-24T13:08:13Z</time>
</trkpt>
<trkpt lat="34.415740" lon="135.655998">
 <ele>662.6</ele>
 <time>2020-03-24T13:08:14Z</time>
</trkpt>
<trkpt lat="34.415714" lon="135.656041">
 <ele>663.3</ele>
 <time>2020-03-24T13:08:14Z</time>
</trkpt>
<trkpt lat="34.415714" lon="135.656138">
 <ele>672.4</ele>
 <time>2020-03-24T13:08:14Z</time>
</trkpt>
<trkpt lat="34.415783" lon="135.656245">
 <ele>681.4</ele>
 <time>2020-03-24T13:08:14Z</time>
</trkpt>
<trkpt lat="34.415877" lon="135.656331">
 <ele>689.8</ele>
 <time>2020-03-24T13:08:14Z</time>
</trkpt>
<trkpt lat="34.415980" lon="135.656438">
 <ele>693.4</ele>
 <time>2020-03-24T13:08:14Z</time>
</trkpt>
<trkpt lat="34.416075" lon="135.656556">
 <ele>693.9</ele>
 <time>2020-03-24T13:08:14Z</time>
</trkpt>
<trkpt lat="34.416109" lon="135.656642">
 <ele>695.3</ele>
 <time>2020-03-24T13:08:15Z</time>
</trkpt>
<trkpt lat="34.416143" lon="135.656749">
 <ele>698.8</ele>
 <time>2020-03-24T13:08:15Z</time>
</trkpt>
<trkpt lat="34.416143" lon="135.656846">
 <ele>701.4</ele>
 <time>2020-03-24T13:08:15Z</time>
</trkpt>
<trkpt lat="34.416203" lon="135.657017">
 <ele>704.2</ele>
 <time>2020-03-24T13:08:15Z</time>
</trkpt>
<trkpt lat="34.416263" lon="135.657146">
 <ele>706</ele>
 <time>2020-03-24T13:08:15Z</time>
</trkpt>
<trkpt lat="34.416358" lon="135.657253">
 <ele>708</ele>
 <time>2020-03-24T13:08:15Z</time>
</trkpt>
<trkpt lat="34.416418" lon="135.657318">
 <ele>707.4</ele>
 <time>2020-03-24T13:08:15Z</time>
</trkpt>
<trkpt lat="34.416409" lon="135.657447">
 <ele>712.8</ele>
 <time>2020-03-24T13:08:15Z</time>
</trkpt>
<trkpt lat="34.416487" lon="135.657511">
 <ele>713.2</ele>
 <time>2020-03-24T13:08:16Z</time>
</trkpt>
<trkpt lat="34.416478" lon="135.657597">
 <ele>716.8</ele>
 <time>2020-03-24T13:08:16Z</time>
</trkpt>
<trkpt lat="34.416452" lon="135.657683">
 <ele>721.4</ele>
 <time>2020-03-24T13:08:16Z</time>
</trkpt>
<trkpt lat="34.416478" lon="135.657758">
 <ele>721.9</ele>
 <time>2020-03-24T13:08:16Z</time>
</trkpt>
<trkpt lat="34.416478" lon="135.657876">
 <ele>727</ele>
 <time>2020-03-24T13:08:16Z</time>
</trkpt>
<trkpt lat="34.416521" lon="135.657972">
 <ele>729.8</ele>
 <time>2020-03-24T13:08:16Z</time>
</trkpt>
<trkpt lat="34.416521" lon="135.658037">
 <ele>732.8</ele>
 <time>2020-03-24T13:08:16Z</time>
</trkpt>
<trkpt lat="34.416487" lon="135.658122">
 <ele>735.5</ele>
 <time>2020-03-24T13:08:16Z</time>
</trkpt>
<trkpt lat="34.416487" lon="135.658219">
 <ele>738</ele>
 <time>2020-03-24T13:08:17Z</time>
</trkpt>
<trkpt lat="34.416555" lon="135.658326">
 <ele>740.2</ele>
 <time>2020-03-24T13:08:17Z</time>
</trkpt>
<trkpt lat="34.416538" lon="135.658423">
 <ele>742</ele>
 <time>2020-03-24T13:08:17Z</time>
</trkpt>
<trkpt lat="34.416590" lon="135.658541">
 <ele>743.3</ele>
 <time>2020-03-24T13:08:17Z</time>
</trkpt>
<trkpt lat="34.416641" lon="135.658637">
 <ele>743.9</ele>
 <time>2020-03-24T13:08:17Z</time>
</trkpt>
<trkpt lat="34.416718" lon="135.658798">
 <ele>746</ele>
 <time>2020-03-24T13:08:17Z</time>
</trkpt>
<trkpt lat="34.416761" lon="135.658927">
 <ele>748</ele>
 <time>2020-03-24T13:08:17Z</time>
</trkpt>
<trkpt lat="34.416839" lon="135.659067">
 <ele>749.9</ele>
 <time>2020-03-24T13:08:17Z</time>
</trkpt>
<trkpt lat="34.416907" lon="135.659228">
 <ele>752.8</ele>
 <time>2020-03-24T13:08:18Z</time>
</trkpt>
<trkpt lat="34.416976" lon="135.659367">
 <ele>754.8</ele>
 <time>2020-03-24T13:08:18Z</time>
</trkpt>
<trkpt lat="34.417070" lon="135.659485">
 <ele>756.3</ele>
 <time>2020-03-24T13:08:18Z</time>
</trkpt>
<trkpt lat="34.417130" lon="135.659582">
 <ele>758.6</ele>
 <time>2020-03-24T13:08:18Z</time>
</trkpt>
<trkpt lat="34.417148" lon="135.659689">
 <ele>761.7</ele>
 <time>2020-03-24T13:08:18Z</time>
</trkpt>
<trkpt lat="34.417148" lon="135.659785">
 <ele>764.7</ele>
 <time>2020-03-24T13:08:18Z</time>
</trkpt>
<trkpt lat="34.417122" lon="135.659828">
 <ele>764.2</ele>
 <time>2020-03-24T13:08:18Z</time>
</trkpt>
<trkpt lat="34.417130" lon="135.660107">
 <ele>770.3</ele>
 <time>2020-03-24T13:08:19Z</time>
</trkpt>
<trkpt lat="34.417165" lon="135.660161">
 <ele>773.1</ele>
 <time>2020-03-24T13:08:19Z</time>
</trkpt>
<trkpt lat="34.417242" lon="135.660172">
 <ele>777.4</ele>
 <time>2020-03-24T13:08:19Z</time>
</trkpt>
<trkpt lat="34.417302" lon="135.660182">
 <ele>779.4</ele>
 <time>2020-03-24T13:08:19Z</time>
</trkpt>
<trkpt lat="34.417319" lon="135.660225">
 <ele>780.3</ele>
 <time>2020-03-24T13:08:19Z</time>
</trkpt>
<trkpt lat="34.417285" lon="135.660333">
 <ele>782.2</ele>
 <time>2020-03-24T13:08:19Z</time>
</trkpt>
<trkpt lat="34.417182" lon="135.660461">
 <ele>786.1</ele>
 <time>2020-03-24T13:08:19Z</time>
</trkpt>
<trkpt lat="34.417105" lon="135.660569">
 <ele>790.3</ele>
 <time>2020-03-24T13:08:19Z</time>
</trkpt>
<trkpt lat="34.417053" lon="135.660665">
 <ele>790.7</ele>
 <time>2020-03-24T13:08:20Z</time>
</trkpt>
<trkpt lat="34.417087" lon="135.660762">
 <ele>791.6</ele>
 <time>2020-03-24T13:08:20Z</time>
</trkpt>
<trkpt lat="34.417165" lon="135.660912">
 <ele>793.3</ele>
 <time>2020-03-24T13:08:20Z</time>
</trkpt>
<trkpt lat="34.417225" lon="135.661009">
 <ele>795.1</ele>
 <time>2020-03-24T13:08:20Z</time>
</trkpt>
<trkpt lat="34.417285" lon="135.661148">
 <ele>797.1</ele>
 <time>2020-03-24T13:08:20Z</time>
</trkpt>
<trkpt lat="34.417311" lon="135.661255">
 <ele>797.2</ele>
 <time>2020-03-24T13:08:20Z</time>
</trkpt>
<trkpt lat="34.417328" lon="135.661363">
 <ele>798.3</ele>
 <time>2020-03-24T13:08:20Z</time>
</trkpt>
<trkpt lat="34.417379" lon="135.661448">
 <ele>799.7</ele>
 <time>2020-03-24T13:08:21Z</time>
</trkpt>
<trkpt lat="34.417439" lon="135.661566">
 <ele>802.8</ele>
 <time>2020-03-24T13:08:21Z</time>
</trkpt>
<trkpt lat="34.417517" lon="135.661642">
 <ele>805.4</ele>
 <time>2020-03-24T13:08:21Z</time>
</trkpt>
<trkpt lat="34.417602" lon="135.661695">
 <ele>804.4</ele>
 <time>2020-03-24T13:08:21Z</time>
</trkpt>
<trkpt lat="34.417680" lon="135.661845">
 <ele>810.5</ele>
 <time>2020-03-24T13:08:21Z</time>
</trkpt>
<trkpt lat="34.417731" lon="135.661953">
 <ele>814.1</ele>
 <time>2020-03-24T13:08:21Z</time>
</trkpt>
<trkpt lat="34.417731" lon="135.662157">
 <ele>825.5</ele>
 <time>2020-03-24T13:08:21Z</time>
</trkpt>
<trkpt lat="34.417705" lon="135.662221">
 <ele>827.6</ele>
 <time>2020-03-24T13:08:21Z</time>
</trkpt>
<trkpt lat="34.417697" lon="135.662317">
 <ele>832.6</ele>
 <time>2020-03-24T13:08:22Z</time>
</trkpt>
<trkpt lat="34.417637" lon="135.662468">
 <ele>833.3</ele>
 <time>2020-03-24T13:08:22Z</time>
</trkpt>
<trkpt lat="34.417577" lon="135.662629">
 <ele>836.2</ele>
 <time>2020-03-24T13:08:22Z</time>
</trkpt>
<trkpt lat="34.417568" lon="135.662736">
 <ele>839.3</ele>
 <time>2020-03-24T13:08:22Z</time>
</trkpt>
<trkpt lat="34.417568" lon="135.662822">
 <ele>843.4</ele>
 <time>2020-03-24T13:08:22Z</time>
</trkpt>
<trkpt lat="34.417645" lon="135.662854">
 <ele>849</ele>
 <time>2020-03-24T13:08:22Z</time>
</trkpt>
<trkpt lat="34.417723" lon="135.662811">
 <ele>849.2</ele>
 <time>2020-03-24T13:08:22Z</time>
</trkpt>
<trkpt lat="34.417783" lon="135.662800">
 <ele>848.6</ele>
 <time>2020-03-24T13:08:22Z</time>
</trkpt>
<trkpt lat="34.417783" lon="135.662875">
 <ele>851.7</ele>
 <time>2020-03-24T13:08:23Z</time>
</trkpt>
<trkpt lat="34.417783" lon="135.662940">
 <ele>853.2</ele>
 <time>2020-03-24T13:08:23Z</time>
</trkpt>
<trkpt lat="34.417791" lon="135.663047">
 <ele>857.8</ele>
 <time>2020-03-24T13:08:23Z</time>
</trkpt>
<trkpt lat="34.417843" lon="135.663176">
 <ele>861.4</ele>
 <time>2020-03-24T13:08:23Z</time>
</trkpt>
<trkpt lat="34.417843" lon="135.663262">
 <ele>864.6</ele>
 <time>2020-03-24T13:08:23Z</time>
</trkpt>
<trkpt lat="34.417843" lon="135.663337">
 <ele>866</ele>
 <time>2020-03-24T13:08:23Z</time>
</trkpt>
<trkpt lat="34.417877" lon="135.663423">
 <ele>869.2</ele>
 <time>2020-03-24T13:08:23Z</time>
</trkpt>
<trkpt lat="34.417894" lon="135.663530">
 <ele>874</ele>
 <time>2020-03-24T13:08:24Z</time>
</trkpt>
<trkpt lat="34.417920" lon="135.663626">
 <ele>875.5</ele>
 <time>2020-03-24T13:08:24Z</time>
</trkpt>
<trkpt lat="34.417946" lon="135.663701">
 <ele>878.7</ele>
 <time>2020-03-24T13:08:24Z</time>
</trkpt>
<trkpt lat="34.417946" lon="135.663809">
 <ele>880.4</ele>
 <time>2020-03-24T13:08:24Z</time>
</trkpt>
<trkpt lat="34.417920" lon="135.663927">
 <ele>881</ele>
 <time>2020-03-24T13:08:24Z</time>
</trkpt>
<trkpt lat="34.417894" lon="135.664034">
 <ele>884.5</ele>
 <time>2020-03-24T13:08:24Z</time>
</trkpt>
<trkpt lat="34.417946" lon="135.664066">
 <ele>886.3</ele>
 <time>2020-03-24T13:08:24Z</time>
</trkpt>
<trkpt lat="34.418032" lon="135.663980">
 <ele>890.2</ele>
 <time>2020-03-24T13:08:24Z</time>
</trkpt>
<trkpt lat="34.418100" lon="135.663970">
 <ele>894.4</ele>
 <time>2020-03-24T13:08:25Z</time>
</trkpt>
<trkpt lat="34.418126" lon="135.664013">
 <ele>895.9</ele>
 <time>2020-03-24T13:08:25Z</time>
</trkpt>
<trkpt lat="34.418109" lon="135.664109">
 <ele>899.7</ele>
 <time>2020-03-24T13:08:25Z</time>
</trkpt>
<trkpt lat="34.418066" lon="135.664216">
 <ele>905.6</ele>
 <time>2020-03-24T13:08:25Z</time>
</trkpt>
<trkpt lat="34.418057" lon="135.664431">
 <ele>915.6</ele>
 <time>2020-03-24T13:08:25Z</time>
</trkpt>
<trkpt lat="34.418057" lon="135.664538">
 <ele>918.4</ele>
 <time>2020-03-24T13:08:25Z</time>
</trkpt>
<trkpt lat="34.417980" lon="135.664667">
 <ele>922.2</ele>
 <time>2020-03-24T13:08:25Z</time>
</trkpt>
<trkpt lat="34.417877" lon="135.664892">
 <ele>927.1</ele>
 <time>2020-03-24T13:08:26Z</time>
</trkpt>
<trkpt lat="34.417817" lon="135.664967">
 <ele>928.1</ele>
 <time>2020-03-24T13:08:26Z</time>
</trkpt>
<trkpt lat="34.417791" lon="135.665021">
 <ele>931.4</ele>
 <time>2020-03-24T13:08:26Z</time>
</trkpt>
<trkpt lat="34.417757" lon="135.665075">
 <ele>932.5</ele>
 <time>2020-03-24T13:08:26Z</time>
</trkpt>
<trkpt lat="34.417766" lon="135.665193">
 <ele>937.3</ele>
 <time>2020-03-24T13:08:26Z</time>
</trkpt>
<trkpt lat="34.417783" lon="135.665343">
 <ele>941.2</ele>
 <time>2020-03-24T13:08:26Z</time>
</trkpt>
<trkpt lat="34.417826" lon="135.665418">
 <ele>942.4</ele>
 <time>2020-03-24T13:08:26Z</time>
</trkpt>
<trkpt lat="34.417817" lon="135.665536">
 <ele>944.4</ele>
 <time>2020-03-24T13:08:26Z</time>
</trkpt>
<trkpt lat="34.417860" lon="135.665665">
 <ele>945.9</ele>
 <time>2020-03-24T13:08:27Z</time>
</trkpt>
<trkpt lat="34.417886" lon="135.665837">
 <ele>949.3</ele>
 <time>2020-03-24T13:08:27Z</time>
</trkpt>
<trkpt lat="34.417920" lon="135.666040">
 <ele>951.4</ele>
 <time>2020-03-24T13:08:27Z</time>
</trkpt>
<trkpt lat="34.417954" lon="135.666148">
 <ele>952.4</ele>
 <time>2020-03-24T13:08:27Z</time>
</trkpt>
<trkpt lat="34.417946" lon="135.666212">
 <ele>952.7</ele>
 <time>2020-03-24T13:08:27Z</time>
</trkpt>
<trkpt lat="34.417963" lon="135.666309">
 <ele>954</ele>
 <time>2020-03-24T13:08:27Z</time>
</trkpt>
<trkpt lat="34.417972" lon="135.666384">
 <ele>954.3</ele>
 <time>2020-03-24T13:08:27Z</time>
</trkpt>
<trkpt lat="34.418014" lon="135.666459">
 <ele>954.7</ele>
 <time>2020-03-24T13:08:28Z</time>
</trkpt>
<trkpt lat="34.418049" lon="135.666577">
 <ele>955.5</ele>
 <time>2020-03-24T13:08:28Z</time>
</trkpt>
<trkpt lat="34.418057" lon="135.666673">
 <ele>956.3</ele>
 <time>2020-03-24T13:08:28Z</time>
</trkpt>
<trkpt lat="34.418075" lon="135.666748">
 <ele>956.5</ele>
 <time>2020-03-24T13:08:28Z</time>
</trkpt>
<trkpt lat="34.418100" lon="135.666909">
 <ele>956.7</ele>
 <time>2020-03-24T13:08:28Z</time>
</trkpt>
<trkpt lat="34.418135" lon="135.667081">
 <ele>958.7</ele>
 <time>2020-03-24T13:08:28Z</time>
</trkpt>
<trkpt lat="34.418186" lon="135.667231">
 <ele>960.6</ele>
 <time>2020-03-24T13:08:28Z</time>
</trkpt>
<trkpt lat="34.418229" lon="135.667360">
 <ele>963.5</ele>
 <time>2020-03-24T13:08:28Z</time>
</trkpt>
<trkpt lat="34.418229" lon="135.667467">
 <ele>968.4</ele>
 <time>2020-03-24T13:08:29Z</time>
</trkpt>
<trkpt lat="34.418272" lon="135.667607">
 <ele>972.1</ele>
 <time>2020-03-24T13:08:29Z</time>
</trkpt>
<trkpt lat="34.418323" lon="135.667682">
 <ele>973.4</ele>
 <time>2020-03-24T13:08:29Z</time>
</trkpt>
<trkpt lat="34.418426" lon="135.667778">
 <ele>973.6</ele>
 <time>2020-03-24T13:08:29Z</time>
</trkpt>
<trkpt lat="34.418478" lon="135.667832">
 <ele>974.7</ele>
 <time>2020-03-24T13:08:29Z</time>
</trkpt>
<trkpt lat="34.418495" lon="135.667929">
 <ele>978.5</ele>
 <time>2020-03-24T13:08:29Z</time>
</trkpt>
<trkpt lat="34.418512" lon="135.668025">
 <ele>985.5</ele>
 <time>2020-03-24T13:08:29Z</time>
</trkpt>
<trkpt lat="34.418607" lon="135.668132">
 <ele>989.3</ele>
 <time>2020-03-24T13:08:29Z</time>
</trkpt>
<trkpt lat="34.418675" lon="135.668229">
 <ele>992.6</ele>
 <time>2020-03-24T13:08:30Z</time>
</trkpt>
<trkpt lat="34.418735" lon="135.668315">
 <ele>995</ele>
 <time>2020-03-24T13:08:30Z</time>
</trkpt>
<trkpt lat="34.418787" lon="135.668401">
 <ele>998.1</ele>
 <time>2020-03-24T13:08:30Z</time>
</trkpt>
<trkpt lat="34.418813" lon="135.668508">
 <ele>1002.6</ele>
 <time>2020-03-24T13:08:30Z</time>
</trkpt>
<trkpt lat="34.418847" lon="135.668605">
 <ele>1005.2</ele>
 <time>2020-03-24T13:08:30Z</time>
</trkpt>
<trkpt lat="34.418847" lon="135.668723">
 <ele>1010.5</ele>
 <time>2020-03-24T13:08:30Z</time>
</trkpt>
<trkpt lat="34.418864" lon="135.668819">
 <ele>1013.4</ele>
 <time>2020-03-24T13:08:30Z</time>
</trkpt>
<trkpt lat="34.418864" lon="135.668959">
 <ele>1017.4</ele>
 <time>2020-03-24T13:08:30Z</time>
</trkpt>
<trkpt lat="34.418873" lon="135.669044">
 <ele>1020.2</ele>
 <time>2020-03-24T13:08:31Z</time>
</trkpt>
<trkpt lat="34.418881" lon="135.669109">
 <ele>1022.8</ele>
 <time>2020-03-24T13:08:31Z</time>
</trkpt>
<trkpt lat="34.418941" lon="135.669173">
 <ele>1024</ele>
 <time>2020-03-24T13:08:31Z</time>
</trkpt>
<trkpt lat="34.418967" lon="135.669205">
 <ele>1025.1</ele>
 <time>2020-03-24T13:08:31Z</time>
</trkpt>
<trkpt lat="34.418993" lon="135.669313">
 <ele>1029.4</ele>
 <time>2020-03-24T13:08:31Z</time>
</trkpt>
<trkpt lat="34.419079" lon="135.669527">
 <ele>1038.7</ele>
 <time>2020-03-24T13:08:31Z</time>
</trkpt>
<trkpt lat="34.419104" lon="135.669677">
 <ele>1044.3</ele>
 <time>2020-03-24T13:08:31Z</time>
</trkpt>
<trkpt lat="34.419173" lon="135.669763">
 <ele>1045.8</ele>
 <time>2020-03-24T13:08:32Z</time>
</trkpt>
<trkpt lat="34.419268" lon="135.669892">
 <ele>1046.8</ele>
 <time>2020-03-24T13:08:32Z</time>
</trkpt>
<trkpt lat="34.419456" lon="135.670010">
 <ele>1046.1</ele>
 <time>2020-03-24T13:08:32Z</time>
</trkpt>
<trkpt lat="34.419594" lon="135.670053">
 <ele>1047.3</ele>
 <time>2020-03-24T13:08:32Z</time>
</trkpt>
<trkpt lat="34.419714" lon="135.670053">
 <ele>1047.1</ele>
 <time>2020-03-24T13:08:32Z</time>
</trkpt>
<trkpt lat="34.419817" lon="135.670117">
 <ele>1047.6</ele>
 <time>2020-03-24T13:08:32Z</time>
</trkpt>
<trkpt lat="34.419937" lon="135.670225">
 <ele>1051.7</ele>
 <time>2020-03-24T13:08:32Z</time>
</trkpt>
<trkpt lat="34.420040" lon="135.670353">
 <ele>1055.7</ele>
 <time>2020-03-24T13:08:32Z</time>
</trkpt>
<trkpt lat="34.420100" lon="135.670386">
 <ele>1055.9</ele>
 <time>2020-03-24T13:08:33Z</time>
</trkpt>
<trkpt lat="34.420186" lon="135.670386">
 <ele>1054.9</ele>
 <time>2020-03-24T13:08:33Z</time>
</trkpt>
<trkpt lat="34.420280" lon="135.670418">
 <ele>1057.6</ele>
 <time>2020-03-24T13:08:33Z</time>
</trkpt>
<trkpt lat="34.420375" lon="135.670600">
 <ele>1063.7</ele>
 <time>2020-03-24T13:08:33Z</time>
</trkpt>
<trkpt lat="34.420461" lon="135.670815">
 <ele>1068.7</ele>
 <time>2020-03-24T13:08:33Z</time>
</trkpt>
<trkpt lat="34.420495" lon="135.670901">
 <ele>1070.8</ele>
 <time>2020-03-24T13:08:33Z</time>
</trkpt>
<trkpt lat="34.420512" lon="135.670965">
 <ele>1072.2</ele>
 <time>2020-03-24T13:08:33Z</time>
</trkpt>
<trkpt lat="34.420409" lon="135.671029">
 <ele>1074.2</ele>
 <time>2020-03-24T13:08:34Z</time>
</trkpt>
<trkpt lat="34.420512" lon="135.671072">
 <ele>1073.9</ele>
 <time>2020-03-24T13:08:34Z</time>
</trkpt>
<trkpt lat="34.420615" lon="135.670997">
 <ele>1077.8</ele>
 <time>2020-03-24T13:08:34Z</time>
</trkpt>
<trkpt lat="34.420718" lon="135.670901">
 <ele>1078.9</ele>
 <time>2020-03-24T13:08:34Z</time>
</trkpt>
<trkpt lat="34.420821" lon="135.670858">
 <ele>1078.8</ele>
 <time>2020-03-24T13:08:34Z</time>
</trkpt>
<trkpt lat="34.420873" lon="135.670686">
 <ele>1076.3</ele>
 <time>2020-03-24T13:08:34Z</time>
</trkpt>
<trkpt lat="34.420821" lon="135.670858">
 <ele>1078.8</ele>
 <time>2020-03-24T13:08:34Z</time>
</trkpt>
<trkpt lat="34.420718" lon="135.670901">
 <ele>1078.9</ele>
 <time>2020-03-24T13:08:34Z</time>
</trkpt>
<trkpt lat="34.420615" lon="135.670997">
 <ele>1077.8</ele>
 <time>2020-03-24T13:08:35Z</time>
</trkpt>
<trkpt lat="34.420512" lon="135.671072">
 <ele>1073.9</ele>
 <time>2020-03-24T13:08:35Z</time>
</trkpt>
<trkpt lat="34.420409" lon="135.671029">
 <ele>1074.2</ele>
 <time>2020-03-24T13:08:35Z</time>
</trkpt>
<trkpt lat="34.420512" lon="135.670965">
 <ele>1072.2</ele>
 <time>2020-03-24T13:08:35Z</time>
</trkpt>
<trkpt lat="34.420495" lon="135.670901">
 <ele>1070.8</ele>
 <time>2020-03-24T13:08:35Z</time>
</trkpt>
<trkpt lat="34.420461" lon="135.670815">
 <ele>1068.7</ele>
 <time>2020-03-24T13:08:35Z</time>
</trkpt>
<trkpt lat="34.420375" lon="135.670600">
 <ele>1063.7</ele>
 <time>2020-03-24T13:08:35Z</time>
</trkpt>
<trkpt lat="34.420280" lon="135.670418">
 <ele>1057.6</ele>
 <time>2020-03-24T13:08:35Z</time>
</trkpt>
<trkpt lat="34.420186" lon="135.670386">
 <ele>1054.9</ele>
 <time>2020-03-24T13:08:36Z</time>
</trkpt>
<trkpt lat="34.420100" lon="135.670386">
 <ele>1055.9</ele>
 <time>2020-03-24T13:08:36Z</time>
</trkpt>
<trkpt lat="34.420040" lon="135.670353">
 <ele>1055.7</ele>
 <time>2020-03-24T13:08:36Z</time>
</trkpt>
<trkpt lat="34.419937" lon="135.670225">
 <ele>1051.7</ele>
 <time>2020-03-24T13:08:36Z</time>
</trkpt>
<trkpt lat="34.419817" lon="135.670117">
 <ele>1047.6</ele>
 <time>2020-03-24T13:08:36Z</time>
</trkpt>
<trkpt lat="34.419714" lon="135.670053">
 <ele>1047.1</ele>
 <time>2020-03-24T13:08:36Z</time>
</trkpt>
<trkpt lat="34.419594" lon="135.670053">
 <ele>1047.3</ele>
 <time>2020-03-24T13:08:36Z</time>
</trkpt>
<trkpt lat="34.419456" lon="135.670010">
 <ele>1046.1</ele>
 <time>2020-03-24T13:08:37Z</time>
</trkpt>
<trkpt lat="34.419268" lon="135.669892">
 <ele>1046.8</ele>
 <time>2020-03-24T13:08:37Z</time>
</trkpt>
<trkpt lat="34.419173" lon="135.669763">
 <ele>1045.8</ele>
 <time>2020-03-24T13:08:37Z</time>
</trkpt>
<trkpt lat="34.419104" lon="135.669677">
 <ele>1044.3</ele>
 <time>2020-03-24T13:08:37Z</time>
</trkpt>
<trkpt lat="34.419079" lon="135.669527">
 <ele>1038.7</ele>
 <time>2020-03-24T13:08:37Z</time>
</trkpt>
<trkpt lat="34.418993" lon="135.669313">
 <ele>1029.4</ele>
 <time>2020-03-24T13:08:37Z</time>
</trkpt>
<trkpt lat="34.418967" lon="135.669205">
 <ele>1025.1</ele>
 <time>2020-03-24T13:08:37Z</time>
</trkpt>
<trkpt lat="34.418941" lon="135.669173">
 <ele>1024</ele>
 <time>2020-03-24T13:08:37Z</time>
</trkpt>
<trkpt lat="34.418881" lon="135.669109">
 <ele>1022.8</ele>
 <time>2020-03-24T13:08:38Z</time>
</trkpt>
<trkpt lat="34.418873" lon="135.669044">
 <ele>1020.2</ele>
 <time>2020-03-24T13:08:38Z</time>
</trkpt>
<trkpt lat="34.418864" lon="135.668959">
 <ele>1017.4</ele>
 <time>2020-03-24T13:08:38Z</time>
</trkpt>
<trkpt lat="34.418864" lon="135.668819">
 <ele>1013.4</ele>
 <time>2020-03-24T13:08:38Z</time>
</trkpt>
<trkpt lat="34.418847" lon="135.668723">
 <ele>1010.5</ele>
 <time>2020-03-24T13:08:38Z</time>
</trkpt>
<trkpt lat="34.418847" lon="135.668605">
 <ele>1005.2</ele>
 <time>2020-03-24T13:08:38Z</time>
</trkpt>
<trkpt lat="34.418813" lon="135.668508">
 <ele>1002.6</ele>
 <time>2020-03-24T13:08:38Z</time>
</trkpt>
<trkpt lat="34.418787" lon="135.668401">
 <ele>998.1</ele>
 <time>2020-03-24T13:08:38Z</time>
</trkpt>
<trkpt lat="34.418735" lon="135.668315">
 <ele>995</ele>
 <time>2020-03-24T13:08:39Z</time>
</trkpt>
<trkpt lat="34.418675" lon="135.668229">
 <ele>992.6</ele>
 <time>2020-03-24T13:08:39Z</time>
</trkpt>
<trkpt lat="34.418607" lon="135.668132">
 <ele>989.3</ele>
 <time>2020-03-24T13:08:39Z</time>
</trkpt>
<trkpt lat="34.418512" lon="135.668025">
 <ele>985.5</ele>
 <time>2020-03-24T13:08:39Z</time>
</trkpt>
<trkpt lat="34.418495" lon="135.667929">
 <ele>978.5</ele>
 <time>2020-03-24T13:08:39Z</time>
</trkpt>
<trkpt lat="34.418478" lon="135.667832">
 <ele>974.7</ele>
 <time>2020-03-24T13:08:39Z</time>
</trkpt>
<trkpt lat="34.418426" lon="135.667778">
 <ele>973.6</ele>
 <time>2020-03-24T13:08:39Z</time>
</trkpt>
<trkpt lat="34.418323" lon="135.667682">
 <ele>973.4</ele>
 <time>2020-03-24T13:08:40Z</time>
</trkpt>
<trkpt lat="34.418272" lon="135.667607">
 <ele>972.1</ele>
 <time>2020-03-24T13:08:40Z</time>
</trkpt>
<trkpt lat="34.418229" lon="135.667467">
 <ele>968.4</ele>
 <time>2020-03-24T13:08:40Z</time>
</trkpt>
<trkpt lat="34.418229" lon="135.667360">
 <ele>963.5</ele>
 <time>2020-03-24T13:08:40Z</time>
</trkpt>
<trkpt lat="34.418186" lon="135.667231">
 <ele>960.6</ele>
 <time>2020-03-24T13:08:40Z</time>
</trkpt>
<trkpt lat="34.418135" lon="135.667081">
 <ele>958.7</ele>
 <time>2020-03-24T13:08:40Z</time>
</trkpt>
<trkpt lat="34.418100" lon="135.666909">
 <ele>956.7</ele>
 <time>2020-03-24T13:08:40Z</time>
</trkpt>
<trkpt lat="34.418075" lon="135.666748">
 <ele>956.5</ele>
 <time>2020-03-24T13:08:40Z</time>
</trkpt>
<trkpt lat="34.418057" lon="135.666673">
 <ele>956.3</ele>
 <time>2020-03-24T13:08:41Z</time>
</trkpt>
<trkpt lat="34.418049" lon="135.666577">
 <ele>955.5</ele>
 <time>2020-03-24T13:08:41Z</time>
</trkpt>
<trkpt lat="34.418014" lon="135.666459">
 <ele>954.7</ele>
 <time>2020-03-24T13:08:41Z</time>
</trkpt>
<trkpt lat="34.417972" lon="135.666384">
 <ele>954.3</ele>
 <time>2020-03-24T13:08:41Z</time>
</trkpt>
<trkpt lat="34.417963" lon="135.666309">
 <ele>954</ele>
 <time>2020-03-24T13:08:41Z</time>
</trkpt>
<trkpt lat="34.417946" lon="135.666212">
 <ele>952.7</ele>
 <time>2020-03-24T13:08:41Z</time>
</trkpt>
<trkpt lat="34.417954" lon="135.666148">
 <ele>952.4</ele>
 <time>2020-03-24T13:08:41Z</time>
</trkpt>
<trkpt lat="34.417920" lon="135.666040">
 <ele>951.4</ele>
 <time>2020-03-24T13:08:42Z</time>
</trkpt>
<trkpt lat="34.417886" lon="135.665837">
 <ele>949.3</ele>
 <time>2020-03-24T13:08:42Z</time>
</trkpt>
<trkpt lat="34.417860" lon="135.665665">
 <ele>945.9</ele>
 <time>2020-03-24T13:08:42Z</time>
</trkpt>
<trkpt lat="34.417817" lon="135.665536">
 <ele>944.4</ele>
 <time>2020-03-24T13:08:42Z</time>
</trkpt>
<trkpt lat="34.417826" lon="135.665418">
 <ele>942.4</ele>
 <time>2020-03-24T13:08:42Z</time>
</trkpt>
<trkpt lat="34.417783" lon="135.665343">
 <ele>941.2</ele>
 <time>2020-03-24T13:08:42Z</time>
</trkpt>
<trkpt lat="34.417766" lon="135.665193">
 <ele>937.3</ele>
 <time>2020-03-24T13:08:42Z</time>
</trkpt>
<trkpt lat="34.417757" lon="135.665075">
 <ele>932.5</ele>
 <time>2020-03-24T13:08:42Z</time>
</trkpt>
<trkpt lat="34.417791" lon="135.665021">
 <ele>931.4</ele>
 <time>2020-03-24T13:08:43Z</time>
</trkpt>
<trkpt lat="34.417817" lon="135.664967">
 <ele>928.1</ele>
 <time>2020-03-24T13:08:43Z</time>
</trkpt>
<trkpt lat="34.417877" lon="135.664892">
 <ele>927.1</ele>
 <time>2020-03-24T13:08:43Z</time>
</trkpt>
<trkpt lat="34.417980" lon="135.664667">
 <ele>922.2</ele>
 <time>2020-03-24T13:08:43Z</time>
</trkpt>
<trkpt lat="34.418057" lon="135.664538">
 <ele>918.4</ele>
 <time>2020-03-24T13:08:43Z</time>
</trkpt>
<trkpt lat="34.418057" lon="135.664431">
 <ele>915.6</ele>
 <time>2020-03-24T13:08:43Z</time>
</trkpt>
<trkpt lat="34.418066" lon="135.664216">
 <ele>905.6</ele>
 <time>2020-03-24T13:08:43Z</time>
</trkpt>
<trkpt lat="34.418109" lon="135.664109">
 <ele>899.7</ele>
 <time>2020-03-24T13:08:43Z</time>
</trkpt>
<trkpt lat="34.418126" lon="135.664013">
 <ele>895.9</ele>
 <time>2020-03-24T13:08:44Z</time>
</trkpt>
<trkpt lat="34.418100" lon="135.663970">
 <ele>894.4</ele>
 <time>2020-03-24T13:08:44Z</time>
</trkpt>
<trkpt lat="34.418032" lon="135.663980">
 <ele>890.2</ele>
 <time>2020-03-24T13:08:44Z</time>
</trkpt>
<trkpt lat="34.417946" lon="135.664066">
 <ele>886.3</ele>
 <time>2020-03-24T13:08:44Z</time>
</trkpt>
<trkpt lat="34.417894" lon="135.664034">
 <ele>884.5</ele>
 <time>2020-03-24T13:08:44Z</time>
</trkpt>
<trkpt lat="34.417920" lon="135.663927">
 <ele>881</ele>
 <time>2020-03-24T13:08:44Z</time>
</trkpt>
<trkpt lat="34.417946" lon="135.663809">
 <ele>880.4</ele>
 <time>2020-03-24T13:08:44Z</time>
</trkpt>
<trkpt lat="34.417946" lon="135.663701">
 <ele>878.7</ele>
 <time>2020-03-24T13:08:45Z</time>
</trkpt>
<trkpt lat="34.417920" lon="135.663626">
 <ele>875.5</ele>
 <time>2020-03-24T13:08:45Z</time>
</trkpt>
<trkpt lat="34.417894" lon="135.663530">
 <ele>874</ele>
 <time>2020-03-24T13:08:45Z</time>
</trkpt>
<trkpt lat="34.417877" lon="135.663423">
 <ele>869.2</ele>
 <time>2020-03-24T13:08:45Z</time>
</trkpt>
<trkpt lat="34.417843" lon="135.663337">
 <ele>866</ele>
 <time>2020-03-24T13:08:45Z</time>
</trkpt>
<trkpt lat="34.417843" lon="135.663262">
 <ele>864.6</ele>
 <time>2020-03-24T13:08:45Z</time>
</trkpt>
<trkpt lat="34.417843" lon="135.663176">
 <ele>861.4</ele>
 <time>2020-03-24T13:08:45Z</time>
</trkpt>
<trkpt lat="34.417791" lon="135.663047">
 <ele>857.8</ele>
 <time>2020-03-24T13:08:45Z</time>
</trkpt>
<trkpt lat="34.417783" lon="135.662940">
 <ele>853.2</ele>
 <time>2020-03-24T13:08:46Z</time>
</trkpt>
<trkpt lat="34.417783" lon="135.662875">
 <ele>851.7</ele>
 <time>2020-03-24T13:08:46Z</time>
</trkpt>
<trkpt lat="34.417783" lon="135.662800">
 <ele>848.6</ele>
 <time>2020-03-24T13:08:46Z</time>
</trkpt>
<trkpt lat="34.417723" lon="135.662811">
 <ele>849.2</ele>
 <time>2020-03-24T13:08:46Z</time>
</trkpt>
<trkpt lat="34.417645" lon="135.662854">
 <ele>849</ele>
 <time>2020-03-24T13:08:46Z</time>
</trkpt>
<trkpt lat="34.417568" lon="135.662822">
 <ele>843.4</ele>
 <time>2020-03-24T13:08:46Z</time>
</trkpt>
<trkpt lat="34.417568" lon="135.662736">
 <ele>839.3</ele>
 <time>2020-03-24T13:08:46Z</time>
</trkpt>
<trkpt lat="34.417577" lon="135.662629">
 <ele>836.2</ele>
 <time>2020-03-24T13:08:46Z</time>
</trkpt>
<trkpt lat="34.417637" lon="135.662468">
 <ele>833.3</ele>
 <time>2020-03-24T13:08:47Z</time>
</trkpt>
<trkpt lat="34.417697" lon="135.662317">
 <ele>832.6</ele>
 <time>2020-03-24T13:08:47Z</time>
</trkpt>
<trkpt lat="34.417705" lon="135.662221">
 <ele>827.6</ele>
 <time>2020-03-24T13:08:47Z</time>
</trkpt>
<trkpt lat="34.417731" lon="135.662157">
 <ele>825.5</ele>
 <time>2020-03-24T13:08:47Z</time>
</trkpt>
<trkpt lat="34.417731" lon="135.661953">
 <ele>814.1</ele>
 <time>2020-03-24T13:08:47Z</time>
</trkpt>
<trkpt lat="34.417680" lon="135.661845">
 <ele>810.5</ele>
 <time>2020-03-24T13:08:47Z</time>
</trkpt>
<trkpt lat="34.417602" lon="135.661695">
 <ele>804.4</ele>
 <time>2020-03-24T13:08:47Z</time>
</trkpt>
<trkpt lat="34.417517" lon="135.661642">
 <ele>805.4</ele>
 <time>2020-03-24T13:08:48Z</time>
</trkpt>
<trkpt lat="34.417439" lon="135.661566">
 <ele>802.8</ele>
 <time>2020-03-24T13:08:48Z</time>
</trkpt>
<trkpt lat="34.417379" lon="135.661448">
 <ele>799.7</ele>
 <time>2020-03-24T13:08:48Z</time>
</trkpt>
<trkpt lat="34.417328" lon="135.661363">
 <ele>798.3</ele>
 <time>2020-03-24T13:08:48Z</time>
</trkpt>
<trkpt lat="34.417311" lon="135.661255">
 <ele>797.2</ele>
 <time>2020-03-24T13:08:48Z</time>
</trkpt>
<trkpt lat="34.417285" lon="135.661148">
 <ele>797.1</ele>
 <time>2020-03-24T13:08:48Z</time>
</trkpt>
<trkpt lat="34.417225" lon="135.661009">
 <ele>795.1</ele>
 <time>2020-03-24T13:08:48Z</time>
</trkpt>
<trkpt lat="34.417165" lon="135.660912">
 <ele>793.3</ele>
 <time>2020-03-24T13:08:48Z</time>
</trkpt>
<trkpt lat="34.417087" lon="135.660762">
 <ele>791.6</ele>
 <time>2020-03-24T13:08:49Z</time>
</trkpt>
<trkpt lat="34.417053" lon="135.660665">
 <ele>790.7</ele>
 <time>2020-03-24T13:08:49Z</time>
</trkpt>
<trkpt lat="34.417105" lon="135.660569">
 <ele>790.3</ele>
 <time>2020-03-24T13:08:49Z</time>
</trkpt>
<trkpt lat="34.417182" lon="135.660461">
 <ele>786.1</ele>
 <time>2020-03-24T13:08:49Z</time>
</trkpt>
<trkpt lat="34.417285" lon="135.660333">
 <ele>782.2</ele>
 <time>2020-03-24T13:08:49Z</time>
</trkpt>
<trkpt lat="34.417319" lon="135.660225">
 <ele>780.3</ele>
 <time>2020-03-24T13:08:49Z</time>
</trkpt>
<trkpt lat="34.417302" lon="135.660182">
 <ele>779.4</ele>
 <time>2020-03-24T13:08:49Z</time>
</trkpt>
<trkpt lat="34.417242" lon="135.660172">
 <ele>777.4</ele>
 <time>2020-03-24T13:08:49Z</time>
</trkpt>
<trkpt lat="34.417165" lon="135.660161">
 <ele>773.1</ele>
 <time>2020-03-24T13:08:50Z</time>
</trkpt>
<trkpt lat="34.417130" lon="135.660107">
 <ele>770.3</ele>
 <time>2020-03-24T13:08:50Z</time>
</trkpt>
<trkpt lat="34.417122" lon="135.659828">
 <ele>764.2</ele>
 <time>2020-03-24T13:08:50Z</time>
</trkpt>
<trkpt lat="34.417148" lon="135.659785">
 <ele>764.7</ele>
 <time>2020-03-24T13:08:50Z</time>
</trkpt>
<trkpt lat="34.417148" lon="135.659689">
 <ele>761.7</ele>
 <time>2020-03-24T13:08:50Z</time>
</trkpt>
<trkpt lat="34.417130" lon="135.659582">
 <ele>758.6</ele>
 <time>2020-03-24T13:08:50Z</time>
</trkpt>
<trkpt lat="34.417070" lon="135.659485">
 <ele>756.3</ele>
 <time>2020-03-24T13:08:50Z</time>
</trkpt>
<trkpt lat="34.416976" lon="135.659367">
 <ele>754.8</ele>
 <time>2020-03-24T13:08:51Z</time>
</trkpt>
<trkpt lat="34.416907" lon="135.659228">
 <ele>752.8</ele>
 <time>2020-03-24T13:08:51Z</time>
</trkpt>
<trkpt lat="34.416839" lon="135.659067">
 <ele>749.9</ele>
 <time>2020-03-24T13:08:51Z</time>
</trkpt>
<trkpt lat="34.416761" lon="135.658927">
 <ele>748</ele>
 <time>2020-03-24T13:08:51Z</time>
</trkpt>
<trkpt lat="34.416718" lon="135.658798">
 <ele>746</ele>
 <time>2020-03-24T13:08:51Z</time>
</trkpt>
<trkpt lat="34.416641" lon="135.658637">
 <ele>743.9</ele>
 <time>2020-03-24T13:08:51Z</time>
</trkpt>
<trkpt lat="34.416590" lon="135.658541">
 <ele>743.3</ele>
 <time>2020-03-24T13:08:51Z</time>
</trkpt>
<trkpt lat="34.416538" lon="135.658423">
 <ele>742</ele>
 <time>2020-03-24T13:08:51Z</time>
</trkpt>
<trkpt lat="34.416555" lon="135.658326">
 <ele>740.2</ele>
 <time>2020-03-24T13:08:52Z</time>
</trkpt>
<trkpt lat="34.416487" lon="135.658219">
 <ele>738</ele>
 <time>2020-03-24T13:08:52Z</time>
</trkpt>
<trkpt lat="34.416487" lon="135.658122">
 <ele>735.5</ele>
 <time>2020-03-24T13:08:52Z</time>
</trkpt>
<trkpt lat="34.416521" lon="135.658037">
 <ele>732.8</ele>
 <time>2020-03-24T13:08:52Z</time>
</trkpt>
<trkpt lat="34.416521" lon="135.657972">
 <ele>729.8</ele>
 <time>2020-03-24T13:08:52Z</time>
</trkpt>
<trkpt lat="34.416478" lon="135.657876">
 <ele>727</ele>
 <time>2020-03-24T13:08:52Z</time>
</trkpt>
<trkpt lat="34.416478" lon="135.657758">
 <ele>721.9</ele>
 <time>2020-03-24T13:08:52Z</time>
</trkpt>
<trkpt lat="34.416452" lon="135.657683">
 <ele>721.4</ele>
 <time>2020-03-24T13:08:53Z</time>
</trkpt>
<trkpt lat="34.416478" lon="135.657597">
 <ele>716.8</ele>
 <time>2020-03-24T13:08:53Z</time>
</trkpt>
<trkpt lat="34.416487" lon="135.657511">
 <ele>713.2</ele>
 <time>2020-03-24T13:08:53Z</time>
</trkpt>
<trkpt lat="34.416409" lon="135.657447">
 <ele>712.8</ele>
 <time>2020-03-24T13:08:53Z</time>
</trkpt>
<trkpt lat="34.416418" lon="135.657318">
 <ele>707.4</ele>
 <time>2020-03-24T13:08:53Z</time>
</trkpt>
<trkpt lat="34.416358" lon="135.657253">
 <ele>708</ele>
 <time>2020-03-24T13:08:53Z</time>
</trkpt>
<trkpt lat="34.416263" lon="135.657146">
 <ele>706</ele>
 <time>2020-03-24T13:08:53Z</time>
</trkpt>
<trkpt lat="34.416203" lon="135.657017">
 <ele>704.2</ele>
 <time>2020-03-24T13:08:53Z</time>
</trkpt>
<trkpt lat="34.416143" lon="135.656846">
 <ele>701.4</ele>
 <time>2020-03-24T13:08:54Z</time>
</trkpt>
<trkpt lat="34.416143" lon="135.656749">
 <ele>698.8</ele>
 <time>2020-03-24T13:08:54Z</time>
</trkpt>
<trkpt lat="34.416109" lon="135.656642">
 <ele>695.3</ele>
 <time>2020-03-24T13:08:54Z</time>
</trkpt>
<trkpt lat="34.416075" lon="135.656556">
 <ele>693.9</ele>
 <time>2020-03-24T13:08:54Z</time>
</trkpt>
<trkpt lat="34.415980" lon="135.656438">
 <ele>693.4</ele>
 <time>2020-03-24T13:08:54Z</time>
</trkpt>
<trkpt lat="34.415877" lon="135.656331">
 <ele>689.8</ele>
 <time>2020-03-24T13:08:54Z</time>
</trkpt>
<trkpt lat="34.415783" lon="135.656245">
 <ele>681.4</ele>
 <time>2020-03-24T13:08:54Z</time>
</trkpt>
<trkpt lat="34.415714" lon="135.656138">
 <ele>672.4</ele>
 <time>2020-03-24T13:08:55Z</time>
</trkpt>
<trkpt lat="34.415714" lon="135.656041">
 <ele>663.3</ele>
 <time>2020-03-24T13:08:55Z</time>
</trkpt>
<trkpt lat="34.415740" lon="135.655998">
 <ele>662.6</ele>
 <time>2020-03-24T13:08:55Z</time>
</trkpt>
<trkpt lat="34.415774" lon="135.655880">
 <ele>660.9</ele>
 <time>2020-03-24T13:08:55Z</time>
</trkpt>
<trkpt lat="34.415843" lon="135.655741">
 <ele>660.5</ele>
 <time>2020-03-24T13:08:55Z</time>
</trkpt>
<trkpt lat="34.415886" lon="135.655633">
 <ele>660.4</ele>
 <time>2020-03-24T13:08:55Z</time>
</trkpt>
<trkpt lat="34.415886" lon="135.655515">
 <ele>657.1</ele>
 <time>2020-03-24T13:08:55Z</time>
</trkpt>
<trkpt lat="34.415886" lon="135.655354">
 <ele>654.1</ele>
 <time>2020-03-24T13:08:55Z</time>
</trkpt>
<trkpt lat="34.415877" lon="135.655204">
 <ele>651.6</ele>
 <time>2020-03-24T13:08:56Z</time>
</trkpt>
<trkpt lat="34.415843" lon="135.655086">
 <ele>647.9</ele>
 <time>2020-03-24T13:08:56Z</time>
</trkpt>
<trkpt lat="34.415774" lon="135.654936">
 <ele>644.2</ele>
 <time>2020-03-24T13:08:56Z</time>
</trkpt>
<trkpt lat="34.415706" lon="135.654893">
 <ele>642.9</ele>
 <time>2020-03-24T13:08:56Z</time>
</trkpt>
<trkpt lat="34.415620" lon="135.654861">
 <ele>641</ele>
 <time>2020-03-24T13:08:56Z</time>
</trkpt>
<trkpt lat="34.415568" lon="135.654797">
 <ele>640.1</ele>
 <time>2020-03-24T13:08:56Z</time>
</trkpt>
<trkpt lat="34.415543" lon="135.654700">
 <ele>640.9</ele>
 <time>2020-03-24T13:08:56Z</time>
</trkpt>
<trkpt lat="34.415603" lon="135.654625">
 <ele>635</ele>
 <time>2020-03-24T13:08:56Z</time>
</trkpt>
<trkpt lat="34.415723" lon="135.654485">
 <ele>623.2</ele>
 <time>2020-03-24T13:08:57Z</time>
</trkpt>
<trkpt lat="34.415791" lon="135.654410">
 <ele>617</ele>
 <time>2020-03-24T13:08:57Z</time>
</trkpt>
<trkpt lat="34.415860" lon="135.654400">
 <ele>612.1</ele>
 <time>2020-03-24T13:08:57Z</time>
</trkpt>
<trkpt lat="34.415980" lon="135.654346">
 <ele>605.7</ele>
 <time>2020-03-24T13:08:57Z</time>
</trkpt>
<trkpt lat="34.416152" lon="135.654271">
 <ele>598.7</ele>
 <time>2020-03-24T13:08:57Z</time>
</trkpt>
<trkpt lat="34.416375" lon="135.654056">
 <ele>591.1</ele>
 <time>2020-03-24T13:08:57Z</time>
</trkpt>
<trkpt lat="34.416555" lon="135.653863">
 <ele>589.4</ele>
 <time>2020-03-24T13:08:57Z</time>
</trkpt>
<trkpt lat="34.416650" lon="135.653756">
 <ele>587.7</ele>
 <time>2020-03-24T13:08:57Z</time>
</trkpt>
<trkpt lat="34.416796" lon="135.653606">
 <ele>585.8</ele>
 <time>2020-03-24T13:08:58Z</time>
</trkpt>
<trkpt lat="34.416967" lon="135.653337">
 <ele>582.1</ele>
 <time>2020-03-24T13:08:58Z</time>
</trkpt>
<trkpt lat="34.417079" lon="135.653144">
 <ele>580.2</ele>
 <time>2020-03-24T13:08:58Z</time>
</trkpt>
<trkpt lat="34.417208" lon="135.652940">
 <ele>575.8</ele>
 <time>2020-03-24T13:08:58Z</time>
</trkpt>
<trkpt lat="34.417251" lon="135.652833">
 <ele>573.8</ele>
 <time>2020-03-24T13:08:58Z</time>
</trkpt>
<trkpt lat="34.417362" lon="135.652672">
 <ele>570.3</ele>
 <time>2020-03-24T13:08:58Z</time>
</trkpt>
<trkpt lat="34.417457" lon="135.652597">
 <ele>569.5</ele>
 <time>2020-03-24T13:08:58Z</time>
</trkpt>
<trkpt lat="34.417594" lon="135.652490">
 <ele>564.5</ele>
 <time>2020-03-24T13:08:59Z</time>
</trkpt>
<trkpt lat="34.417757" lon="135.652340">
 <ele>561.1</ele>
 <time>2020-03-24T13:08:59Z</time>
</trkpt>
<trkpt lat="34.417877" lon="135.652211">
 <ele>558.6</ele>
 <time>2020-03-24T13:08:59Z</time>
</trkpt>
<trkpt lat="34.418014" lon="135.652061">
 <ele>555.3</ele>
 <time>2020-03-24T13:08:59Z</time>
</trkpt>
<trkpt lat="34.418195" lon="135.651825">
 <ele>551.3</ele>
 <time>2020-03-24T13:08:59Z</time>
</trkpt>
<trkpt lat="34.418392" lon="135.651556">
 <ele>541</ele>
 <time>2020-03-24T13:08:59Z</time>
</trkpt>
<trkpt lat="34.418512" lon="135.651299">
 <ele>532.5</ele>
 <time>2020-03-24T13:08:59Z</time>
</trkpt>
<trkpt lat="34.418581" lon="135.651159">
 <ele>532.8</ele>
 <time>2020-03-24T13:08:59Z</time>
</trkpt>
<trkpt lat="34.418607" lon="135.650988">
 <ele>536.1</ele>
 <time>2020-03-24T13:09:00Z</time>
</trkpt>
<trkpt lat="34.418667" lon="135.650805">
 <ele>525.5</ele>
 <time>2020-03-24T13:09:00Z</time>
</trkpt>
<trkpt lat="34.418650" lon="135.650698">
 <ele>525.5</ele>
 <time>2020-03-24T13:09:00Z</time>
</trkpt>
<trkpt lat="34.418624" lon="135.650516">
 <ele>523.9</ele>
 <time>2020-03-24T13:09:00Z</time>
</trkpt>
<trkpt lat="34.418615" lon="135.650376">
 <ele>519.5</ele>
 <time>2020-03-24T13:09:00Z</time>
</trkpt>
<trkpt lat="34.418607" lon="135.650194">
 <ele>516.4</ele>
 <time>2020-03-24T13:09:00Z</time>
</trkpt>
<trkpt lat="34.418590" lon="135.650054">
 <ele>514.9</ele>
 <time>2020-03-24T13:09:00Z</time>
</trkpt>
<trkpt lat="34.418572" lon="135.649883">
 <ele>512.3</ele>
 <time>2020-03-24T13:09:00Z</time>
</trkpt>
<trkpt lat="34.418564" lon="135.649700">
 <ele>509</ele>
 <time>2020-03-24T13:09:01Z</time>
</trkpt>
<trkpt lat="34.418435" lon="135.649572">
 <ele>508</ele>
 <time>2020-03-24T13:09:01Z</time>
</trkpt>
<trkpt lat="34.418323" lon="135.649411">
 <ele>506.4</ele>
 <time>2020-03-24T13:09:01Z</time>
</trkpt>
<trkpt lat="34.418229" lon="135.649346">
 <ele>505.9</ele>
 <time>2020-03-24T13:09:01Z</time>
</trkpt>
<trkpt lat="34.418117" lon="135.649357">
 <ele>506.4</ele>
 <time>2020-03-24T13:09:01Z</time>
</trkpt>
<trkpt lat="34.417954" lon="135.649336">
 <ele>507.5</ele>
 <time>2020-03-24T13:09:01Z</time>
</trkpt>
<trkpt lat="34.417826" lon="135.649250">
 <ele>507.5</ele>
 <time>2020-03-24T13:09:01Z</time>
</trkpt>
<trkpt lat="34.417637" lon="135.649078">
 <ele>508.2</ele>
 <time>2020-03-24T13:09:02Z</time>
</trkpt>
</trkseg>
</trk>
</gpx>

